This is the latest recevied weather packets stored in our database for station/object S55YIZ-7. If no packets are shown the sender has not sent any weather packets the latest 10 day(s).
| Time | Temp. | Humidity | Pressure | Rain* | Wind** | Luminosity | Snow |
|---|---|---|---|---|---|---|---|
| 1777045154 | 23.89° C | 24% | 1017 hPa | - | - | - | - |
| 1777044254 | 23.89° C | 24% | 1017.2 hPa | - | - | - | - |
| 1777043354 | 24.44° C | 25% | 1017.2 hPa | - | - | - | - |
| 1777042454 | 24.44° C | 24% | 1017.3 hPa | - | - | - | - |
| 1777041553 | 23.89° C | 25% | 1017.5 hPa | - | - | - | - |
| 1777040653 | 24.44° C | 25% | 1017.5 hPa | - | - | - | - |
| 1777039753 | 23.89° C | 26% | 1017.6 hPa | - | - | - | - |
| 1777038853 | 23.89° C | 28% | 1017.7 hPa | - | - | - | - |
| 1777037953 | 23.33° C | 31% | 1017.8 hPa | - | - | - | - |
| 1777037053 | 23.33° C | 32% | 1018 hPa | - | - | - | - |
| 1777036153 | 22.78° C | 34% | 1018.1 hPa | - | - | - | - |
| 1777035285 | 24.44° C | 33% | 1018.2 hPa | - | - | - | - |
| 1777035253 | 24.44° C | 33% | 1018.2 hPa | - | - | - | - |
| 1777034352 | 25.56° C | 31% | 1018.3 hPa | - | - | - | - |
| 1777033452 | 25° C | 31% | 1018.5 hPa | - | - | - | - |
| 1777032552 | 25.56° C | 33% | 1018.6 hPa | - | - | - | - |
| 1777031652 | 25° C | 33% | 1018.6 hPa | - | - | - | - |
| 1777030787 | 26.11° C | 30% | 1018.7 hPa | - | - | - | - |
| 1777030751 | 26.11° C | 30% | 1018.7 hPa | - | - | - | - |
| 1777029851 | 26.11° C | 32% | 1018.8 hPa | - | - | - | - |
| 1777028951 | 25.56° C | 30% | 1018.9 hPa | - | - | - | - |
| 1777028051 | 26.67° C | 30% | 1019 hPa | - | - | - | - |
| 1777027151 | 26.11° C | 32% | 1019.2 hPa | - | - | - | - |
| 1777026251 | 26.11° C | 31% | 1019.3 hPa | - | - | - | - |
| 1777025351 | 25.56° C | 30% | 1019.4 hPa | - | - | - | - |
* Rain since midnight (hover to see other rain measurements)
** Current wind speed in m/s (hover to see current wind gust speed)